Miscellaneous Local Product
Issued by NWS North Platte, NE

Home | Current Version | Previous Version | Text Only | Print | Product List | Glossary On
Versions: 1 2 3 4 5 6 7 8 9 10 11 12 13 14 15 16 17 18 19 20 21 22 23 24 25 26 27 28 29 30 31 32 33 34 35 36 37 38 39 40 41 42 43 44 45 46 47 48 49 50
000
AXUS43 KLBF 281910
MISLBF


WESTERN AND NORTH CENTRAL NEBRASKA HOURLY WEATHER ROUNDUP
NATIONAL WEATHER SERVICE NORTH PLATTE NE
200 PM CDT WED SEP 28 2016

NOTE: "FAIR" INDICATES FEW OR NO CLOUDS BELOW 12,000 FEET WITH NO
SIGNIFICANT WEATHER AND/OR OBSTRUCTIONS TO VISIBILITY.

NOTE: STATIONS NOT REPORTING VARIABLES SUCH AS SKY/WEATHER OR
PRESSURE ARE PROVIDED BY RAWS AND APRS NETWORKS AND ARE NOT UNDER
NATIONAL WEATHER SERVICE QUALITY CONTROL.

...OBSERVATIONS IN AND NEAR THE EASTERN PANHANDLE OF NEBRASKA...

CITY           SKY/WX    TMP DP  RH WIND       PRES   REMARKS
PINE RIDGE     SUNNY     81  44  27 VRB7      30.25F
CHADRON        SUNNY     79  39  23 CALM      30.25F
ALLIANCE       SUNNY     78  40  25 E5        30.27F
SIDNEY         SUNNY     77  39  25 E9        30.31S
$$

...OBSERVATIONS IN NORTHERN NEBRASKA AND FAR SOUTHERN SOUTH DAKOTA...

CITY           SKY/WX    TMP DP  RH WIND       PRES   REMARKS
WINNER         FAIR      69  39  33 VRB6      30.27S
VALENTINE      SUNNY     71  36  27 N6        30.26S
THEDFORD       SUNNY     76  45  34 NE9G17    30.26S
AINSWORTH      SUNNY     68  33  27 N10       30.27S
O`NEILL        SUNNY     64  43  47 N8        30.26S
ORD            SUNNY     70  33  25 NE13      30.22F
BROKEN BOW     SUNNY     73  31  21 NE10G20   30.24S
$$

...OBSERVATIONS IN SOUTHWEST NEBRASKA AND FAR NORTHEAST COLORADO...

CITY           SKY/WX    TMP DP  RH WIND       PRES   REMARKS
WRAY           FAIR      82  36  18 N8G21     30.26
HOLYOKE        FAIR      82  37  20 N8        30.27S
IMPERIAL       SUNNY     79  39  23 E12       30.24F
OGALLALA       SUNNY     82  35  19 NE8G16    30.25S
NORTH PLATTE   SUNNY     77  42  28 NE10G18   30.23F
MCCOOK         SUNNY     78  45  30 N13       30.22F
LEXINGTON      SUNNY     74  40  28 NE10G21   30.23S HAZE
GOTHENBURG       N/A     76  40  27 N5          N/A
CALLAWAY         N/A     73  44  35 NE7         N/A
$$

...OBSERVATIONS IN CENTRAL LINCOLN COUNTY AREA...

CITY           SKY/WX    TMP DP  RH WIND       PRES   REMARKS
N.P. AIRPORT   SUNNY     77  42  28 NE10G18   30.23F
$$

...SOME OBSERVATIONS FROM AROUND THE REGION...

CITY           SKY/WX    TMP DP  RH WIND       PRES   REMARKS
DENVER         MOSUNNY   78  28  16 NE8       30.33F
LARAMIE        SUNNY     71  30  21 SE15G22   30.40F
CHEYENNE       SUNNY     73  35  25 CALM      30.38F
SCOTTSBLUFF    SUNNY     78  43  28 E7        30.29F
RAPID CITY     SUNNY     79  47  32 NE8       30.26S
BISMARCK       SUNNY     67  40  37 VRB3      30.29S
PIERRE         SUNNY     67  37  33 NE6       30.26S
SIOUX FALLS    MOSUNNY   64  47  53 N10       30.25S
OMAHA          MOSUNNY   63  47  55 N13       30.20S
GRAND ISLAND   SUNNY     67  44  43 N10G22    30.22S
KANSAS CITY    MOSUNNY   65  47  52 N16       30.12R
WICHITA        SUNNY     76  43  30 N16       30.13S
OKLAHOMA CITY  MOSUNNY   85  51  31 N8        30.07R
DALLAS         MOSUNNY   86  49  27 CALM      30.05F
AMARILLO       SUNNY     86  35  16 NE6       30.21F
DODGE CITY     SUNNY     82  44  26 NE14      30.19R
HAYS           SUNNY     75  43  31 NE15      30.19F
GOODLAND       SUNNY     79  40  24 VRB3      30.25S
$$




USA.gov is the U.S. government's official web portal to all federal, state and local government web resources and services.